Weather History for KHYS - March, 2014

Change the Weather History Date:

Sunday, March 9, 2014

  Actual Average Record
Temperature  
Mean Temperature 48 °F -  
Max Temperature 69 °F 47 °F 73 °F (2009)
Min Temperature 26 °F 23 °F 10 °F (1998)
Degree Days  
Heating Degree Days 18    
Moisture  
Dew Point 29 °F    
Average Humidity 55    
Maximum Humidity 93    
Minimum Humidity 21    
Precipitation  
Precipitation 0.00 in - - ()
Sea Level Pressure  
Sea Level Pressure 30.10 in    
Wind  
Wind Speed 10 mph (SW)    
Max Wind Speed 26 mph    
Max Gust Speed 34 mph    
Visibility 10 miles    
Events      
Averages and records for this station are not official NWS values.
T = Trace of Precipitation, MM = Missing Value Source: NWS Daily Summary

Daily Weather History Graph

Daily Weather History Graph

Search for Another Location

Airport or City:

Trip Planner

Search our weather history database for the weather conditions in past years. The results will help you decide how hot, cold, wet, or windy it might be!

Date:

Astronomy

Mar. 09, 2014 Rise Set
Actual Time 7:57 AM CDT 7:38 PM CDT
Civil Twilight 7:30 AM CDT 8:04 PM CDT
Nautical Twilight 7:00 AM CDT 8:35 PM CDT
Astronomical Twilight 6:29 AM CDT 9:06 PM CDT
Moon 1:34 PM CDT (3/9) 3:22 AM CDT (3/9)
Length of Visible Light 12h 33m
Length of Day
11h 40m
First Quarter, 61% of the Moon is Illuminated
Mar 9
First Quarter
Mar 16
Full
Mar 23
Last Quarter
Mar 30
New
Apr 7
First Quarter

Hourly Weather History & Observations

Time (CDT) Temp. Windchill Dew Point Humidity Pressure Visibility Wind Dir Wind Speed Gust Speed Precip Events Conditions
12:15 AM 28.4 °F 22.2 °F 21.2 °F 74% 30.29 in 10.0 mi WSW 5.8 mph - N/A   Clear
12:35 AM 28.4 °F 22.2 °F 19.4 °F 69% 30.29 in 10.0 mi SW 5.8 mph - N/A   Clear
12:55 AM 26.6 °F 18.2 °F 21.2 °F 80% 30.28 in 10.0 mi SSW 8.1 mph - N/A   Clear
1:15 AM 26.6 °F 17.5 °F 21.2 °F 80% 30.27 in 10.0 mi SSW 9.2 mph - N/A   Clear
1:35 AM 30.2 °F 23.4 °F 24.8 °F 80% 30.27 in 10.0 mi WSW 6.9 mph - N/A   Clear
1:55 AM 30.2 °F 24.3 °F 21.2 °F 69% 30.27 in 10.0 mi WSW 5.8 mph - N/A   Clear
3:15 AM 30.2 °F 24.3 °F 23.0 °F 75% 30.27 in 10.0 mi WSW 5.8 mph - N/A   Clear
3:35 AM 28.4 °F 21.2 °F 24.8 °F 86% 30.26 in 10.0 mi WNW 6.9 mph - N/A   Clear
3:55 AM 28.4 °F 21.2 °F 23.0 °F 80% 30.26 in 10.0 mi WNW 6.9 mph - N/A   Clear
4:15 AM 30.2 °F 25.4 °F 24.8 °F 80% 30.25 in 10.0 mi West 4.6 mph - N/A   Clear
4:35 AM 32.0 °F 27.5 °F 24.8 °F 75% 30.23 in 10.0 mi WSW 4.6 mph - N/A   Clear
4:55 AM 30.2 °F 23.4 °F 24.8 °F 80% 30.23 in 10.0 mi WSW 6.9 mph - N/A   Clear
5:15 AM 30.2 °F 25.4 °F 24.8 °F 80% 30.22 in 10.0 mi WSW 4.6 mph - N/A   Clear
5:35 AM 28.4 °F 23.3 °F 24.8 °F 86% 30.21 in 10.0 mi WSW 4.6 mph - N/A   Clear
5:55 AM 28.4 °F 20.4 °F 24.8 °F 86% 30.21 in 10.0 mi WNW 8.1 mph - N/A   Clear
6:15 AM 28.4 °F - 24.8 °F 86% 30.21 in 10.0 mi Calm Calm - N/A   Clear
6:35 AM 30.2 °F 25.4 °F 26.6 °F 86% 30.20 in 10.0 mi West 4.6 mph - N/A   Clear
6:55 AM 28.4 °F 23.3 °F 24.8 °F 86% 30.21 in 10.0 mi West 4.6 mph - N/A   Clear
7:15 AM 30.2 °F 24.3 °F 26.6 °F 86% 30.21 in 10.0 mi WSW 5.8 mph - N/A   Clear
7:35 AM 30.2 °F 24.3 °F 28.4 °F 93% 30.21 in 10.0 mi West 5.8 mph - N/A   Clear
7:55 AM 30.2 °F 23.4 °F 26.6 °F 86% 30.20 in 10.0 mi SW 6.9 mph - N/A   Clear
8:15 AM 30.2 °F 22.6 °F 26.6 °F 86% 30.19 in 10.0 mi SW 8.1 mph - N/A   Clear
8:35 AM 30.2 °F 23.4 °F 26.6 °F 86% 30.19 in 10.0 mi SW 6.9 mph - N/A   Clear
8:55 AM 30.2 °F 25.4 °F 26.6 °F 86% 30.20 in 10.0 mi WSW 4.6 mph - N/A   Clear
9:15 AM 32.0 °F 28.7 °F 28.4 °F 87% 30.20 in 10.0 mi SW 3.5 mph - N/A   Clear
9:35 AM 35.6 °F 29.9 °F 30.2 °F 81% 30.19 in 10.0 mi SW 6.9 mph - N/A   Clear
9:55 AM 37.4 °F 31.4 °F 33.8 °F 87% 30.18 in 10.0 mi SSW 8.1 mph - N/A   Clear
10:15 AM 42.8 °F 36.6 °F 33.8 °F 70% 30.17 in 10.0 mi SW 11.5 mph - N/A   Clear
10:35 AM 44.6 °F 37.4 °F 35.6 °F 71% 30.17 in 10.0 mi SW 16.1 mph - N/A   Clear
10:55 AM 48.2 °F - 35.6 °F 62% 30.17 in 10.0 mi SW 18.4 mph - N/A   Clear
11:15 AM 51.8 °F - 35.6 °F 54% 30.16 in 10.0 mi SW 19.6 mph - N/A   Clear
11:35 AM 53.6 °F - 35.6 °F 51% 30.16 in 10.0 mi SW 20.7 mph 26.5 mph N/A   Clear
11:55 AM 55.4 °F - 35.6 °F 47% 30.15 in 10.0 mi SW 20.7 mph 28.8 mph N/A   Clear
12:15 PM 57.2 °F - 37.4 °F 48% 30.15 in 10.0 mi SW 21.9 mph - N/A   Clear
12:35 PM 60.8 °F - 35.6 °F 39% 30.15 in 10.0 mi SW 21.9 mph - N/A   Clear
12:55 PM 60.8 °F - 35.6 °F 39% 30.13 in 10.0 mi SW 21.9 mph 31.1 mph N/A   Clear
1:15 PM 62.6 °F - 35.6 °F 37% 30.12 in 10.0 mi SW 21.9 mph 31.1 mph N/A   Clear
1:35 PM 62.6 °F - 33.8 °F 34% 30.11 in 10.0 mi SW 25.3 mph 31.1 mph N/A   Clear
1:55 PM 64.4 °F - 35.6 °F 34% 30.09 in 10.0 mi SW 21.9 mph 29.9 mph N/A   Clear
2:15 PM 64.4 °F - 33.8 °F 32% 30.07 in 10.0 mi SW 25.3 mph 31.1 mph N/A   Clear
2:35 PM 66.2 °F - 33.8 °F 30% 30.06 in 10.0 mi SW 24.2 mph 29.9 mph N/A   Clear
2:55 PM 66.2 °F - 33.8 °F 30% 30.04 in 10.0 mi SW 25.3 mph 31.1 mph N/A   Clear
3:15 PM 68.0 °F - 33.8 °F 28% 30.03 in 10.0 mi SW 25.3 mph 29.9 mph N/A   Clear
3:35 PM 68.0 °F - 32.0 °F 26% 30.02 in 10.0 mi SW 24.2 mph 32.2 mph N/A   Clear
3:55 PM 68.0 °F - 30.2 °F 24% 30.01 in 10.0 mi SW 24.2 mph 32.2 mph N/A   Clear
4:15 PM 69.8 °F - 30.2 °F 23% 30.00 in 10.0 mi SW 24.2 mph 28.8 mph N/A   Clear
4:35 PM 69.8 °F - 30.2 °F 23% 29.98 in 10.0 mi SW 26.5 mph 32.2 mph N/A   Clear
4:55 PM 69.8 °F - 30.2 °F 23% 29.97 in 10.0 mi SW 25.3 mph 34.5 mph N/A   Clear
5:15 PM 69.8 °F - 30.2 °F 23% 29.97 in 10.0 mi SW 26.5 mph - N/A   Clear
5:35 PM 69.8 °F - 28.4 °F 21% 29.96 in 10.0 mi SW 25.3 mph 31.1 mph N/A   Clear
5:55 PM 69.8 °F - 28.4 °F 21% 29.95 in 10.0 mi SW 23.0 mph 32.2 mph N/A   Clear
6:15 PM 69.8 °F - 28.4 °F 21% 29.94 in 10.0 mi SSW 20.7 mph 33.4 mph N/A   Clear
6:35 PM 69.8 °F - 28.4 °F 21% 29.95 in 10.0 mi SW 19.6 mph 28.8 mph N/A   Clear
6:55 PM 66.2 °F - 28.4 °F 24% 29.95 in 10.0 mi SW 15.0 mph - N/A   Clear
7:15 PM 64.4 °F - 28.4 °F 26% 29.95 in 10.0 mi SW 10.4 mph - N/A   Clear
7:35 PM 62.6 °F - 26.6 °F 26% 29.95 in 10.0 mi SSW 9.2 mph - N/A   Clear
7:55 PM 57.2 °F - 28.4 °F 33% 29.95 in 10.0 mi SSW 10.4 mph - N/A   Clear
8:15 PM 55.4 °F - 28.4 °F 36% 29.95 in 10.0 mi South 9.2 mph - N/A   Clear
8:35 PM 53.6 °F - 30.2 °F 41% 29.94 in 10.0 mi SSE 9.2 mph - N/A   Clear
8:55 PM 51.8 °F - 28.4 °F 41% 29.95 in 10.0 mi SSE 6.9 mph - N/A   Clear
9:15 PM 50.0 °F - 28.4 °F 43% 29.94 in 10.0 mi South 6.9 mph - N/A   Clear
9:35 PM 48.2 °F - 28.4 °F 46% 29.95 in 10.0 mi SSW 6.9 mph - N/A   Clear
9:55 PM 48.2 °F - 28.4 °F 46% 29.95 in 10.0 mi Calm Calm - N/A   Clear
10:15 PM 48.2 °F - 28.4 °F 46% 29.95 in 10.0 mi SW 3.5 mph - N/A   Clear
10:35 PM 48.2 °F - 28.4 °F 46% 29.96 in 10.0 mi SW 5.8 mph - N/A   Clear
10:55 PM 48.2 °F - 28.4 °F 46% 29.96 in 10.0 mi WSW 6.9 mph - N/A   Clear
11:15 PM 46.4 °F 42.9 °F 28.4 °F 50% 29.96 in 10.0 mi SW 6.9 mph - N/A   Clear
11:35 PM 46.4 °F 42.9 °F 26.6 °F 46% 29.96 in 10.0 mi SW 6.9 mph - N/A   Clear
11:55 PM 44.6 °F 43.1 °F 26.6 °F 49% 29.96 in 10.0 mi West 3.5 mph - N/A   Clear
12:15 AM 44.6 °F 40.7 °F 26.6 °F 49% 29.95 in 10.0 mi West 6.9 mph - N/A   Clear
12:35 AM 44.6 °F 40.7 °F 26.6 °F 49% 29.95 in 10.0 mi West 6.9 mph - N/A   Clear
12:55 AM 44.6 °F 39.7 °F 26.6 °F 49% 29.96 in 10.0 mi West 9.2 mph - N/A   Clear